• In Hungary
  • List of Countries
  • For 7 days
  • Water Temperature
  • Satellite Maps
  • Weather Map
  • News
  • Weather Widgets
  • user-avatar
    Login

    Hourly Weather Zhavoronkovo

    Today, 24 May, Thursday

    Time Temperature Precipitation Wind Pressure Humidity
    00:00 +11°C° 0 mm 1 mps 753 mmHg 90%
    01:00 +11°C° 0 mm 1 mps 753 mmHg 91%
    02:00 +9°C° 0 mm 0 mps 753 mmHg 95%
    03:00 +11°C° 0 mm 1 mps 753 mmHg 92%
    04:00 +12°C° 0 mm 1 mps 753 mmHg 89%
    05:00 +12°C° 0 mm 1 mps 753 mmHg 86%
    06:00 +15°C° 0 mm 1 mps 753 mmHg 78%
    07:00 +18°C° 0 mm 1 mps 753 mmHg 69%
    08:00 +21°C° 0 mm 1 mps 753 mmHg 60%
    09:00 +22°C° 0 mm 1 mps 753 mmHg 56%
    10:00 +23°C° 0 mm 1 mps 753 mmHg 53%
    11:00 +23°C° 0 mm 2 mps 753 mmHg 50%
    12:00 +23°C° 0.3 mm 2 mps 753 mmHg 52%
    13:00 +23°C° 0.3 mm 2 mps 753 mmHg 55%
    14:00 +22°C° 0.3 mm 3 mps 753 mmHg 57%
    15:00 +21°C° 0.1 mm 3 mps 753 mmHg 56%
    16:00 +21°C° 0.1 mm 3 mps 753 mmHg 56%
    17:00 +21°C° 0.1 mm 3 mps 753 mmHg 55%
    18:00 +19°C° 0 mm 3 mps 753 mmHg 61%
    19:00 +17°C° 0 mm 2 mps 754 mmHg 67%
    20:00 +15°C° 0 mm 2 mps 754 mmHg 73%
    21:00 +14°C° 0 mm 2 mps 754 mmHg 71%
    22:00 +13°C° 0 mm 2 mps 755 mmHg 69%
    23:00 +10°C° 0 mm 2 mps 755 mmHg 67%

    Tomorrow, 25 May, Friday

    Time Temperature Precipitation Wind Pressure Humidity
    00:00 +9°C° 0 mm 2 mps 756 mmHg 66%
    01:00 +8°C° 0 mm 2 mps 756 mmHg 66%
    02:00 +7°C° 0 mm 2 mps 756 mmHg 66%
    03:00 +8°C° 0 mm 2 mps 757 mmHg 65%
    04:00 +8°C° 0 mm 2 mps 757 mmHg 64%
    05:00 +9°C° 0 mm 2 mps 757 mmHg 63%
    06:00 +12°C° 0 mm 2 mps 758 mmHg 56%
    07:00 +14°C° 0 mm 2 mps 758 mmHg 49%
    08:00 +16°C° 0 mm 2 mps 758 mmHg 42%
    09:00 +17°C° 0 mm 2 mps 759 mmHg 39%
    10:00 +18°C° 0 mm 2 mps 759 mmHg 36%
    11:00 +19°C° 0 mm 2 mps 759 mmHg 34%
    12:00 +20°C° 0 mm 2 mps 759 mmHg 33%
    13:00 +20°C° 0 mm 2 mps 759 mmHg 33%
    14:00 +21°C° 0 mm 2 mps 758 mmHg 32%
    15:00 +21°C° 0 mm 2 mps 758 mmHg 34%
    16:00 +21°C° 0 mm 1 mps 758 mmHg 35%
    17:00 +21°C° 0 mm 1 mps 758 mmHg 37%
    18:00 +19°C° 0 mm 1 mps 758 mmHg 44%
    19:00 +16°C° 0 mm 1 mps 758 mmHg 51%
    20:00 +13°C° 0 mm 0 mps 759 mmHg 59%
    21:00 +13°C° 0 mm 1 mps 759 mmHg 61%
    22:00 +12°C° 0 mm 1 mps 759 mmHg 64%
    23:00 +11°C° 0 mm 1 mps 759 mmHg 66%

    Day after tomorrow, 26 May, Saturday

    Time Temperature Precipitation Wind Pressure Humidity
    00:00 +11°C° 0 mm 1 mps 760 mmHg 68%
    01:00 +10°C° 0 mm 1 mps 760 mmHg 70%
    02:00 +10°C° 0 mm 1 mps 760 mmHg 72%
    03:00 +9°C° 0 mm 2 mps 761 mmHg 71%
    04:00 +10°C° 0 mm 2 mps 761 mmHg 70%
    05:00 +12°C° 0 mm 2 mps 761 mmHg 69%
    06:00 +14°C° 0 mm 2 mps 761 mmHg 62%
    07:00 +16°C° 0 mm 2 mps 761 mmHg 56%
    08:00 +18°C° 0 mm 3 mps 761 mmHg 49%
    09:00 +20°C° 0 mm 3 mps 761 mmHg 45%
    10:00 +21°C° 0 mm 3 mps 761 mmHg 41%
    11:00 +22°C° 0 mm 3 mps 761 mmHg 37%
    12:00 +24°C° 0 mm 3 mps 760 mmHg 36%
    13:00 +24°C° 0 mm 3 mps 760 mmHg 36%
    14:00 +25°C° 0 mm 3 mps 759 mmHg 35%
    15:00 +24°C° 0 mm 3 mps 759 mmHg 37%
    16:00 +24°C° 0 mm 3 mps 759 mmHg 39%
    17:00 +24°C° 0 mm 3 mps 758 mmHg 41%
    18:00 +21°C° 0 mm 2 mps 758 mmHg 50%
    19:00 +19°C° 0 mm 2 mps 758 mmHg 58%
    20:00 +16°C° 0 mm 2 mps 758 mmHg 67%
    21:00 +16°C° 0 mm 2 mps 758 mmHg 69%
    22:00 +15°C° 0 mm 2 mps 758 mmHg 71%
    23:00 +14°C° 0 mm 2 mps 758 mmHg 73%

    27 May, Sunday

    Time Temperature Precipitation Wind Pressure Humidity
    00:00 +13°C° 0 mm 2 mps 758 mmHg 73%
    01:00 +13°C° 0 mm 2 mps 758 mmHg 74%
    02:00 +12°C° 0 mm 3 mps 758 mmHg 75%
    03:00 +12°C° 0 mm 3 mps 757 mmHg 74%
    04:00 +12°C° 0 mm 3 mps 757 mmHg 73%
    05:00 +13°C° 0 mm 3 mps 757 mmHg 73%
    06:00 +16°C° 0 mm 3 mps 757 mmHg 67%
    07:00 +17°C° 0 mm 4 mps 757 mmHg 62%
    08:00 +19°C° 0 mm 4 mps 756 mmHg 57%
    09:00 +21°C° 0 mm 4 mps 756 mmHg 53%
    10:00 +22°C° 0 mm 4 mps 756 mmHg 49%
    11:00 +23°C° 0 mm 4 mps 756 mmHg 45%
    12:00 +23°C° 0.1 mm 4 mps 755 mmHg 46%
    13:00 +25°C° 0.1 mm 4 mps 755 mmHg 46%
    14:00 +25°C° 0.1 mm 4 mps 755 mmHg 47%
    15:00 +23°C° 0.1 mm 4 mps 755 mmHg 47%
    16:00 +23°C° 0.1 mm 4 mps 755 mmHg 46%
    17:00 +22°C° 0.1 mm 3 mps 755 mmHg 45%
    18:00 +20°C° 0 mm 3 mps 755 mmHg 49%
    19:00 +18°C° 0 mm 3 mps 755 mmHg 52%
    20:00 +14°C° 0 mm 3 mps 756 mmHg 55%
    21:00 +14°C° 0 mm 2 mps 756 mmHg 55%
    22:00 +12°C° 0 mm 2 mps 757 mmHg 54%
    23:00 +10°C° 0 mm 2 mps 758 mmHg 53%

    28 May, Monday

    Time Temperature Precipitation Wind Pressure Humidity
    00:00 +9°C° 0 mm 2 mps 758 mmHg 52%
    01:00 +8°C° 0 mm 2 mps 759 mmHg 51%
    02:00 +7°C° 0 mm 2 mps 759 mmHg 50%
    03:00 +8°C° 0 mm 2 mps 759 mmHg 52%
    04:00 +8°C° 0 mm 2 mps 760 mmHg 53%
    05:00 +8°C° 0 mm 2 mps 760 mmHg 54%
    06:00 +10°C° 0 mm 2 mps 761 mmHg 48%
    07:00 +13°C° 0 mm 2 mps 761 mmHg 42%
    08:00 +15°C° 0 mm 2 mps 761 mmHg 37%
    09:00 +16°C° 0 mm 2 mps 761 mmHg 34%
    10:00 +18°C° 0 mm 2 mps 761 mmHg 31%
    11:00 +19°C° 0 mm 2 mps 761 mmHg 28%
    12:00 +20°C° 0 mm 2 mps 761 mmHg 28%
    13:00 +20°C° 0 mm 2 mps 761 mmHg 28%
    14:00 +21°C° 0 mm 2 mps 760 mmHg 27%
    15:00 +21°C° 0 mm 2 mps 760 mmHg 29%
    16:00 +21°C° 0 mm 2 mps 760 mmHg 32%
    17:00 +21°C° 0 mm 2 mps 760 mmHg 34%
    18:00 +19°C° 0 mm 2 mps 760 mmHg 42%
    19:00 +18°C° 0 mm 1 mps 760 mmHg 49%
    20:00 +15°C° 0 mm 1 mps 760 mmHg 57%
    21:00 +14°C° 0 mm 1 mps 760 mmHg 58%
    22:00 +13°C° 0 mm 1 mps 760 mmHg 59%
    23:00 +12°C° 0 mm 1 mps 760 mmHg 61%

    29 May, Tuesday

    Time Temperature Precipitation Wind Pressure Humidity
    00:00 +11°C° 0 mm 1 mps 760 mmHg 61%
    01:00 +11°C° 0 mm 1 mps 760 mmHg 62%
    02:00 +11°C° 0 mm 1 mps 761 mmHg 62%
    03:00 +11°C° 0 mm 1 mps 761 mmHg 62%
    04:00 +12°C° 0 mm 2 mps 761 mmHg 62%
    05:00 +12°C° 0 mm 2 mps 761 mmHg 62%
    06:00 +15°C° 0 mm 2 mps 761 mmHg 56%
    07:00 +17°C° 0 mm 2 mps 761 mmHg 50%
    08:00 +19°C° 0 mm 2 mps 760 mmHg 44%
    09:00 +21°C° 0 mm 2 mps 760 mmHg 41%
    10:00 +22°C° 0 mm 3 mps 760 mmHg 38%
    11:00 +25°C° 0 mm 3 mps 759 mmHg 34%
    12:00 +25°C° 0 mm 3 mps 759 mmHg 34%
    13:00 +26°C° 0 mm 3 mps 758 mmHg 33%
    14:00 +26°C° 0 mm 3 mps 758 mmHg 33%
    15:00 +26°C° 0 mm 3 mps 757 mmHg 35%
    16:00 +25°C° 0 mm 3 mps 757 mmHg 38%
    17:00 +25°C° 0 mm 3 mps 756 mmHg 40%
    18:00 +22°C° 0 mm 3 mps 756 mmHg 48%
    19:00 +20°C° 0 mm 3 mps 755 mmHg 56%
    20:00 +18°C° 0 mm 2 mps 755 mmHg 63%
    21:00 +17°C° 0 mm 2 mps 755 mmHg 65%
    22:00 +16°C° 0 mm 2 mps 755 mmHg 67%
    23:00 +15°C° 0 mm 2 mps 754 mmHg 68%
    Show more